When you browse on this site, cookies collect data to enhance your experience and personalize the content and advertising you see.
Visit our Privacy Policy to learn more. By continuing to use the site, you agree to this use of cookies and data.
  • In Latvia
  • List of Countries
  • For 7 days
  • Water Temperature
  • Satellite Maps
  • Weather Map
  • Weather Widgets
  • user-avatar
    Login

    Hourly Weather Jankowice

    Today, 19 December, Wednesday

    Time Temperature Precipitation Wind Pressure Humidity
    00:00 -3°C° 0 mm 2 mps 751 mmHg 89%
    01:00 -4°C° 0 mm 2 mps 750 mmHg 88%
    02:00 -4°C° 0 mm 2 mps 750 mmHg 88%
    03:00 -4°C° 0 mm 2 mps 750 mmHg 88%
    04:00 -4°C° 0 mm 2 mps 750 mmHg 87%
    05:00 -4°C° 0 mm 2 mps 750 mmHg 87%
    06:00 -4°C° 0 mm 2 mps 749 mmHg 86%
    07:00 -4°C° 0 mm 2 mps 749 mmHg 85%
    08:00 -4°C° 0 mm 2 mps 749 mmHg 82%
    09:00 -3°C° 0 mm 2 mps 749 mmHg 79%
    10:00 -2°C° 0 mm 2 mps 749 mmHg 76%
    11:00 -1°C° 0 mm 2 mps 749 mmHg 75%
    12:00 +1°C° 0 mm 2 mps 748 mmHg 74%
    13:00 +1°C° 0 mm 2 mps 748 mmHg 73%
    14:00 -1°C° 0 mm 2 mps 748 mmHg 77%
    15:00 -2°C° 0 mm 2 mps 747 mmHg 80%
    16:00 -3°C° 0 mm 2 mps 747 mmHg 83%
    17:00 -3°C° 0 mm 2 mps 747 mmHg 83%
    18:00 -3°C° 0 mm 2 mps 747 mmHg 83%
    19:00 -1°C° 0 mm 1 mps 747 mmHg 83%
    20:00 -1°C° 0 mm 1 mps 747 mmHg 82%
    21:00 -1°C° 0 mm 1 mps 746 mmHg 81%
    22:00 -1°C° 0 mm 1 mps 746 mmHg 80%
    23:00 -1°C° 0 mm 1 mps 746 mmHg 79%

    Tomorrow, 20 December, Thursday

    Time Temperature Precipitation Wind Pressure Humidity
    00:00 -1°C° 0 mm 1 mps 746 mmHg 77%
    01:00 -1°C° 0 mm 1 mps 746 mmHg 76%
    02:00 0°C° 0 mm 1 mps 746 mmHg 75%
    03:00 0°C° 0 mm 1 mps 746 mmHg 74%
    04:00 0°C° 0 mm 1 mps 745 mmHg 73%
    05:00 0°C° 0 mm 1 mps 745 mmHg 73%
    06:00 0°C° 0 mm 1 mps 745 mmHg 73%
    07:00 0°C° 0 mm 1 mps 745 mmHg 73%
    08:00 0°C° 0 mm 1 mps 745 mmHg 73%
    09:00 -1°C° 0 mm 2 mps 745 mmHg 74%
    10:00 -1°C° 0 mm 2 mps 745 mmHg 74%
    11:00 -1°C° 0 mm 2 mps 745 mmHg 75%
    12:00 -1°C° 0 mm 2 mps 745 mmHg 76%
    13:00 0°C° 0 mm 3 mps 745 mmHg 76%
    14:00 -1°C° 0 mm 3 mps 745 mmHg 79%
    15:00 -1°C° 0 mm 3 mps 745 mmHg 81%
    16:00 -1°C° 0 mm 3 mps 745 mmHg 83%
    17:00 -1°C° 0.1 mm 3 mps 745 mmHg 84%
    18:00 -1°C° 0.1 mm 3 mps 745 mmHg 85%
    19:00 -1°C° 0.1 mm 3 mps 745 mmHg 86%
    20:00 -1°C° 0.1 mm 3 mps 745 mmHg 87%
    21:00 -2°C° 0.1 mm 4 mps 746 mmHg 87%
    22:00 -2°C° 0.1 mm 4 mps 746 mmHg 88%
    23:00 -2°C° 0 mm 4 mps 746 mmHg 88%

    Day after tomorrow, 21 December, Friday

    Time Temperature Precipitation Wind Pressure Humidity
    00:00 -2°C° 0 mm 4 mps 746 mmHg 88%
    01:00 -1°C° 0 mm 4 mps 746 mmHg 88%
    02:00 -1°C° 0 mm 4 mps 745 mmHg 88%
    03:00 -1°C° 0 mm 4 mps 745 mmHg 88%
    04:00 -1°C° 0 mm 4 mps 745 mmHg 88%
    05:00 -1°C° 0 mm 4 mps 745 mmHg 88%
    06:00 0°C° 0 mm 3 mps 745 mmHg 88%
    07:00 0°C° 0 mm 3 mps 745 mmHg 88%
    08:00 0°C° 0.1 mm 3 mps 745 mmHg 87%
    09:00 0°C° 0.1 mm 4 mps 744 mmHg 86%
    10:00 +1°C° 0.1 mm 4 mps 744 mmHg 85%
    11:00 +1°C° 0.1 mm 4 mps 744 mmHg 84%
    12:00 +3°C° 0.1 mm 4 mps 743 mmHg 84%
    13:00 +3°C° 0.1 mm 4 mps 742 mmHg 83%
    14:00 +3°C° 0.2 mm 4 mps 742 mmHg 84%
    15:00 +2°C° 0.2 mm 3 mps 741 mmHg 85%
    16:00 +2°C° 0.2 mm 3 mps 740 mmHg 85%
    17:00 +2°C° 0.4 mm 3 mps 740 mmHg 85%
    18:00 +1°C° 0.4 mm 4 mps 739 mmHg 85%
    19:00 +1°C° 0.4 mm 4 mps 739 mmHg 84%
    20:00 +2°C° 0.5 mm 5 mps 738 mmHg 84%
    21:00 +2°C° 0.5 mm 6 mps 738 mmHg 84%
    22:00 +2°C° 0.5 mm 6 mps 737 mmHg 84%
    23:00 +3°C° 0.2 mm 7 mps 737 mmHg 85%

    22 December, Saturday

    Time Temperature Precipitation Wind Pressure Humidity
    00:00 +3°C° 0.2 mm 7 mps 737 mmHg 86%
    01:00 +4°C° 0.2 mm 7 mps 737 mmHg 87%
    02:00 +4°C° 0.1 mm 7 mps 737 mmHg 87%
    03:00 +3°C° 0.1 mm 7 mps 737 mmHg 87%
    04:00 +3°C° 0.1 mm 7 mps 737 mmHg 87%
    05:00 +3°C° 0 mm 6 mps 737 mmHg 87%
    06:00 +3°C° 0 mm 6 mps 737 mmHg 87%
    07:00 +3°C° 0 mm 5 mps 737 mmHg 86%
    08:00 +3°C° 0.2 mm 5 mps 737 mmHg 87%
    09:00 +3°C° 0.2 mm 5 mps 736 mmHg 89%
    10:00 +5°C° 0.2 mm 5 mps 736 mmHg 90%
    11:00 +5°C° 0.4 mm 5 mps 735 mmHg 89%
    12:00 +5°C° 0.4 mm 5 mps 735 mmHg 88%
    13:00 +6°C° 0.4 mm 5 mps 734 mmHg 87%
    14:00 +5°C° 0.3 mm 6 mps 734 mmHg 87%
    15:00 +5°C° 0.3 mm 6 mps 734 mmHg 87%
    16:00 +5°C° 0.3 mm 7 mps 734 mmHg 86%
    17:00 +5°C° 0.3 mm 7 mps 734 mmHg 86%
    18:00 +5°C° 0.3 mm 7 mps 735 mmHg 85%
    19:00 +4°C° 0.3 mm 6 mps 735 mmHg 85%
    20:00 +4°C° 0.1 mm 6 mps 736 mmHg 85%
    21:00 +4°C° 0.1 mm 6 mps 736 mmHg 86%
    22:00 +4°C° 0.1 mm 6 mps 737 mmHg 87%
    23:00 +4°C° 0.1 mm 6 mps 737 mmHg 85%

    23 December, Sunday

    Time Temperature Precipitation Wind Pressure Humidity
    00:00 +3°C° 0.1 mm 6 mps 737 mmHg 84%
    01:00 +3°C° 0.1 mm 6 mps 737 mmHg 82%
    02:00 +3°C° 0.4 mm 6 mps 738 mmHg 83%
    03:00 +3°C° 0.4 mm 7 mps 738 mmHg 84%
    04:00 +3°C° 0.4 mm 7 mps 738 mmHg 85%
    05:00 +3°C° 0.4 mm 6 mps 739 mmHg 85%
    06:00 +3°C° 0.4 mm 6 mps 739 mmHg 85%
    07:00 +3°C° 0.4 mm 5 mps 740 mmHg 85%
    08:00 +3°C° 0.1 mm 5 mps 740 mmHg 84%
    09:00 +3°C° 0.1 mm 6 mps 741 mmHg 83%
    10:00 +3°C° 0.1 mm 6 mps 741 mmHg 82%
    11:00 +3°C° 0.1 mm 6 mps 741 mmHg 81%
    12:00 +3°C° 0.1 mm 6 mps 741 mmHg 80%
    13:00 +4°C° 0.1 mm 6 mps 741 mmHg 79%
    14:00 +3°C° 0.2 mm 5 mps 742 mmHg 80%
    15:00 +3°C° 0.2 mm 5 mps 742 mmHg 81%
    16:00 +3°C° 0.2 mm 5 mps 742 mmHg 82%
    17:00 +3°C° 0.1 mm 5 mps 742 mmHg 83%
    18:00 +2°C° 0.1 mm 5 mps 742 mmHg 84%
    19:00 +2°C° 0.1 mm 5 mps 742 mmHg 86%
    20:00 +2°C° 0.3 mm 5 mps 743 mmHg 85%
    21:00 +2°C° 0.3 mm 5 mps 743 mmHg 84%
    22:00 +2°C° 0.3 mm 6 mps 743 mmHg 83%
    23:00 +2°C° 0.3 mm 6 mps 743 mmHg 83%

    24 December, Monday

    Time Temperature Precipitation Wind Pressure Humidity
    00:00 +2°C° 0.3 mm 6 mps 743 mmHg 83%
    01:00 +2°C° 0.3 mm 6 mps 743 mmHg 83%
    02:00 +2°C° 0.3 mm 6 mps 743 mmHg 83%
    03:00 +2°C° 0.3 mm 6 mps 744 mmHg 84%
    04:00 +1°C° 0.3 mm 5 mps 744 mmHg 85%
    05:00 +1°C° 0.2 mm 4 mps 745 mmHg 86%
    06:00 0°C° 0.2 mm 4 mps 745 mmHg 86%
    07:00 +1°C° 0.2 mm 3 mps 746 mmHg 87%
    08:00 +2°C° 0.1 mm 2 mps 746 mmHg 86%
    09:00 +2°C° 0.1 mm 2 mps 747 mmHg 85%
    10:00 +2°C° 0.1 mm 2 mps 747 mmHg 83%
    11:00 +2°C° 0.2 mm 2 mps 747 mmHg 83%
    12:00 +3°C° 0.2 mm 2 mps 747 mmHg 84%
    13:00 +2°C° 0.2 mm 3 mps 747 mmHg 84%
    14:00 +3°C° 0.3 mm 2 mps 748 mmHg 86%
    15:00 +2°C° 0.3 mm 2 mps 748 mmHg 89%
    16:00 +2°C° 0.3 mm 2 mps 748 mmHg 91%
    17:00 +2°C° 0.1 mm 2 mps 748 mmHg 93%
    18:00 +2°C° 0.1 mm 2 mps 749 mmHg 94%
    19:00 +2°C° 0.1 mm 2 mps 749 mmHg 95%
    20:00 +2°C° 0.1 mm 2 mps 749 mmHg 95%
    21:00 +2°C° 0.1 mm 2 mps 749 mmHg 94%
    22:00 +2°C° 0.1 mm 2 mps 749 mmHg 94%
    23:00 +2°C° 0.1 mm 2 mps 749 mmHg 94%
    Show more